GEOSCAN 3 (RS92S3)

Last updated on Fri Dec 19 2025 00:03:12 GMT+0000 (Coordinated Universal Time)

1 64893U 25155T 25352.58322975 .00014722 00000+0 54033-3 0 9999 2 64893 97.4338 316.5616 0009025 101.0552 259.1703 15.28014062 53200
UTC large
Height (km)
Speed (km/s)
/
Latitude / Longitude
Inclination (degrees)
Orbital Period (minutes)
Azimuth
Elevation
Range (km)
Doppler Factor

Next 0 passes for location: London (51.5072 / 0.1276)

Sorry there are no passes over London.